SES-22

Last updated on Sat Aug 15 2026 00:03:02 GMT+0000 (Coordinated Universal Time)

1 52933U 22071A 26226.54040928 .00000000 00000+0 00000+0 0 9992 2 52933 0.0196 104.8641 0001031 30.0517 243.5838 1.00271939 8109
UTC large
Height (km)
Speed (km/s)
/
Latitude / Longitude
Inclination (degrees)
Orbital Period (minutes)
Azimuth
Elevation
Range (km)
Doppler Factor

Next 0 passes for location: London (51.5072 / 0.1276)

No passes found over London.
SES-22